Voltar ao catálogo

STARLINK-3314

AtivoComunicaçõesVLEO
NORAD 50851·PAYLOAD·🇺🇸 United States

Lançado Jan 6, 2022 de Cape Canaveral Space Force Station

Loading…

Próximas Passagens (próximas 24 horas)

TLE

AtualizadoSource: CelesTrak SupGP

Época: Sep 15, 2026, 00:58 UTC

1 50851C 22001BA  26258.04076389 -.00034898  00000+0 -10591-2 0  2583
2 50851  53.1600  35.3389 0001089  80.5679 211.2216 15.33560886    11

Acompanhe STARLINK-3314 em tempo real com AllMySat

Download on the App Store